sat.trackr.live / text

‹ back to catalog

STARLINK-5049

NORAD 57246 · 2023-094AE

PAYLOAD ACTIVE UNKNOWN

§ Identity

Operator
Country
US
Launch date
2023-07-07
Launch site
AFWTR
Launch vehicle
Mass (kg)
RCS (m²)

Purposes: comms

External: N2YO · Heavens-Above · Gunter

§ Orbital elements

Epoch: 2026-09-20T00:10:35.944608Z

Period
94.27 min
Inclination
43.0050°
Eccentricity
0.0001715
Mean motion
15.27575131 rev/d
Perigee alt
481.9 km
Apogee alt
484.2 km
Semi-major
6,861.2 km
B*
-1.8910e-6
RAAN
2.0318°
Arg perigee
282.8750°
Mean anomaly
77.1910°
Rev number
17,696

§ Raw data

STARLINK-50491 57246U 23094AE  26263.00736047 -.00000314  00000+0 -18910-5 0  99912 57246  43.0050   2.0318 0001715 282.8750  77.1910 15.27575131176969

JSON: /api/v1/satellites/57246 · /tle

For live sub-satellite position, see the globe view (requires WebGL).

§ Visibility from observer

Set your observer location to see the next 7 days of passes ≥ 10°. The values pass through the URL so the page stays shareable.

No JS? Fill the form by hand. The geolocation button needs JavaScript.